Location: Casone le Fosse
(44.6547°N, 12.1103°E)
Time: 12:11:37
(UTC+00:00)

Cosmos 1503 Rocket - Pass Details

Date: 29 October 2020
Orbit: 752 x 791 km, 74.0° (Epoch: 28 November)

Event Time Altitude Azimuth Distance (km) Brightness Sun altitude
Rises 17:16:10 0° 343° (NNW) 3,230 7.4 -13.3°
Reaches altitude 10° 17:18:37 10° 349° (N) 2,306 6.5 -13.7°
Maximum altitude 17:23:41 49° 64° (ENE) 990 4.2 -14.6°
Drops below altitude 10° 17:28:46 10° 139° (SE) 2,315 6.1 -15.5°
Enters shadow 17:29:46 - 142° (SE) 2,687 6.5 -15.7°
